Location: Vinland
(47.7731°N, 122.6974°W)
Time: 11:34:22
(UTC+00:00)

Tiros 1 - Pass Details

Date: 01 April 2023
Orbit: 627 x 660 km, 48.4° (Epoch: 28 May)

Event Time Altitude Azimuth Distance (km) Brightness Sun altitude
Exits shadow 12:56:14 12° 262° (W) 1,926 8.9 -9.6°
Maximum altitude 13:00:39 87° 350° (N) 667 7.2 -8.8°
Drops below altitude 10° 13:05:28 10° 82° (E) 2,078 11.4 -8.1°
Sets 13:07:49 0° 83° (E) 2,989 12.8 -7.7°
